Location: Piotrkow Trybunalski
(51.4000°N, 19.6830°E)
Time: 14:07:13
(UTC+01:00)

Vanguard 2 - Pass Details

Date: 12 February 2023
Orbit: 553 x 2927 km, 32.9° (Epoch: 24 March)

Event Time Altitude Azimuth Distance (km) Brightness Sun altitude
Rises 20:07:24 0° 234° (SW) 4,427 11.9 -30.9°
Reaches altitude 10° 20:10:24 10° 224° (SW) 3,763 11.3 -31.3°
Enters shadow 20:18:56 31° 168° (SSE) 3,176 10.3 -32.6°
Maximum altitude 20:19:04 31° 167° (SSE) 3,185 - -32.6°
Drops below altitude 10° 20:31:21 10° 114° (ESE) 5,395 - -34.4°
Sets 20:36:44 0° 106° (ESE) 6,630 - -35.2°
